[[{"header":{"parameterUnit":"m.s-1","parameterCategory":2,"la1":30.2991,"la2":30.254,"lo1":-89.0895,"lo2":-89.0444,"dy":0.0017,"dx":0.0017,"nx":28,"ny":28,"refTime":"2026-02-10T03:00:00:Z","depth":"0","parameterNumber":2,"parameterNumberName":"U-component_of_CURRENTS"},"data":[0,0,0,0,0,0,0,0,0,0,0,0,0,0,0,0,0,0,0,0,0,0,0,0,0,0,0,0,0,0,0,0,0,0,0,0,0,0,0,0,0,0,0,0,0,0,0,0,0,0,0,0,0,0,0,0,0,0,-0.3785,-0.3787,0,-0.381,-0.3808,-0.3807,-0.3712,-0.3711,-0.371,-0.3709,-0.3551,-0.3547,-0.3544,0,0,0,0,0,0,0,0,0,0,0,0,0,-0.3574,-0.3577,-0.3785,-0.3787,-0.3789,-0.381,-0.3808,-0.3807,-0.3712,-0.3711,-0.371,-0.3709,-0.3552,-0.3548,-0.3544,0,0,0,0,0,0,0,0,0,0,0,0,0,-0.362,-0.3578,-0.3784,-0.3759,-0.3759,-0.381,-0.3808,-0.3806,-0.3712,-0.3711,-0.371,-0.3708,-0.3553,-0.3548,-0.3543,-0.3542,0,0,-0.3528,-0.3526,0,0,0,0,0,0,0,0,-0.3617,-0.3625,-0.3761,-0.3761,-0.3761,-0.3774,-0.3677,-0.3716,-0.3713,-0.3709,-0.3709,-0.3707,-0.3623,-0.3612,-0.3594,-0.3534,-0.3527,-0.3528,-0.3525,-0.3523,-0.3521,0,0,0,0,0,0,0,-0.3614,-0.3623,-0.3774,-0.3764,-0.3764,-0.3721,-0.3724,-0.3683,-0.3654,-0.3709,-0.3707,-0.3743,-0.3618,-0.3599,-0.3589,-0.3525,-0.3528,-0.3523,-0.352,-0.3518,-0.3464,-0.3465,0,0,0,0,0,0,-0.3659,-0.3621,-0.3774,-0.3777,-0.3707,-0.3727,-0.373,-0.3755,-0.3659,-0.365,-0.3744,-0.3739,-0.3608,-0.3595,-0.3583,-0.3546,-0.3523,-0.3518,-0.3515,-0.3462,-0.3464,-0.3466,0,0,0,0,0,0,-0.3654,-0.3672,-0.3773,-0.3715,-0.3728,-0.3735,-0.3762,-0.3757,-0.3743,-0.3691,-0.3674,-0.3739,-0.3606,-0.359,-0.356,-0.354,-0.3516,-0.3511,-0.3461,-0.3463,-0.3465,-0.349,0,0,0,0,0,0,-0.3647,-0.3669,-0.3672,-0.3719,-0.3734,-0.3829,-0.3766,-0.3759,-0.3777,-0.3769,-0.3682,-0.3665,-0.3604,-0.3569,-0.3556,-0.3533,-0.3507,-0.3459,-0.3462,-0.3464,-0.3487,-0.3493,-0.3498,0,0,0,0,0,-0.3639,-0.3664,-0.3671,-0.369,-0.3747,-0.3834,-0.3835,-0.382,-0.3778,-0.3793,-0.3727,-0.3668,-0.3577,-0.3566,-0.355,-0.3525,-0.3457,-0.3461,-0.3464,-0.3485,-0.3492,-0.3497,0,0,0,0,0,0,-0.3598,-0.3661,-0.3668,-0.3717,-0.3787,-0.3826,-0.3833,-0.3834,-0.3793,-0.3773,-0.3687,-0.3668,-0.3632,-0.3598,-0.3588,-0.3526,-0.3508,-0.3509,-0.3529,-0.3535,-0.354,-0.3414,-0.3503,0,0,0,0,0,-0.3595,-0.3602,-0.3699,-0.3736,-0.3773,-0.3802,-0.3823,-0.3843,-0.3839,-0.3818,-0.3751,-0.3688,-0.3637,-0.3603,-0.3561,-0.353,-0.344,-0.3509,-0.3514,-0.3519,-0.3411,-0.3301,-0.3283,-0.3477,-0.3477,-0.3477,0,0,-0.3585,-0.3628,-0.3629,-0.3724,-0.3755,-0.3761,-0.3804,-0.3873,-0.3834,-0.3808,-0.3705,-0.3708,-0.3639,-0.3596,-0.3577,-0.3559,-0.3439,-0.3523,-0.3526,-0.3413,-0.3302,-0.3281,-0.3263,-0.348,-0.3479,-0.3479,0,0,-0.3551,-0.3621,-0.3593,-0.3647,-0.3741,-0.3769,-0.3798,-0.3853,-0.3833,-0.3824,-0.3761,-0.3735,-0.3687,-0.3595,-0.3551,-0.3561,-0.3479,-0.3598,-0.3496,-0.3396,-0.3376,-0.3357,-0.3298,-0.3272,-0.359,-0.359,-0.359,0,-0.3513,-0.3516,-0.3611,-0.3607,-0.3629,-0.3759,-0.3742,-0.3751,-0.3776,-0.3743,-0.3801,-0.3675,-0.3651,-0.3505,-0.3516,-0.3555,-0.3508,-0.3477,-0.3393,-0.3372,-0.3352,-0.3295,-0.3266,-0.3591,-0.3591,-0.3591,-0.3591,0,-0.3453,-0.345,-0.3463,-0.3459,-0.3506,-0.3553,-0.3613,-0.3623,-0.3656,-0.3657,-0.3601,-0.3592,-0.3502,-0.3532,-0.3517,-0.3368,-0.3391,-0.3422,-0.3359,-0.3332,-0.3278,-0.3248,-0.3594,-0.3593,-0.3593,-0.3592,0,0,-0.3314,-0.3389,-0.3373,-0.3345,-0.3442,-0.3467,-0.3441,-0.3445,-0.3381,-0.3445,-0.3332,-0.3308,-0.3344,-0.329,-0.3299,-0.3209,-0.3095,-0.3251,-0.3245,-0.3156,-0.2894,-0.2859,-0.2824,-0.3124,-0.3117,-0.3112,-0.2941,0,-0.3205,-0.3155,-0.3231,-0.3157,-0.3132,-0.3248,-0.3196,-0.3222,-0.3267,-0.3204,-0.322,-0.3153,-0.3242,-0.3226,-0.3151,-0.3111,-0.3003,-0.3137,-0.2957,-0.295,-0.2891,-0.2781,-0.2692,-0.2523,-0.2911,-0.2906,-0.2902,0,-0.3045,-0.3047,-0.2979,-0.2977,-0.2979,-0.2961,-0.293,-0.2917,-0.2904,-0.2941,-0.2917,-0.2956,-0.2847,-0.2945,-0.2791,-0.2889,-0.2845,-0.2819,-0.2814,-0.2708,-0.2852,-0.26,-0.2453,-0.2448,-0.2855,-0.2859,-0.2863,0,-0.2829,-0.2826,-0.2768,-0.2776,-0.2821,-0.2794,-0.2807,-0.2817,-0.2811,-0.2759,-0.2774,-0.2691,-0.2675,-0.2591,-0.2627,-0.2689,-0.246,-0.2554,-0.2454,-0.2457,-0.2288,-0.2284,-0.2052,-0.2337,-0.2337,-0.2337,-0.2338,0,-0.2639,-0.2572,-0.2665,-0.2631,-0.2562,-0.263,-0.2565,-0.2577,-0.2587,-0.2566,-0.2619,-0.2587,-0.2583,-0.2529,-0.2517,-0.2402,-0.2383,-0.2337,-0.2358,-0.2313,-0.2313,-0.2228,-0.2282,-0.2331,-0.2332,-0.2334,-0.2335,0,-0.2405,-0.2458,-0.2406,-0.2456,-0.2464,-0.2415,-0.2481,-0.2441,-0.2473,-0.2443,-0.2431,-0.2475,-0.241,-0.2403,-0.2275,-0.2269,-0.2106,-0.2106,-0.2079,-0.2094,-0.1992,-0.2054,-0.1767,-0.1712,-0.1923,-0.192,-0.1918,0,-0.2289,-0.2239,-0.2292,-0.2288,-0.2324,-0.2301,-0.2301,-0.2362,-0.2365,-0.2391,-0.2364,-0.2315,-0.2288,-0.2123,-0.2042,-0.1924,-0.1969,-0.1781,-0.1829,-0.1867,-0.1952,-0.2019,-0.2,-0.1668,-0.1663,-0.166,-0.1657,0,-0.2103,-0.214,-0.2137,-0.2141,-0.2144,-0.2152,-0.2169,-0.2168,-0.224,-0.2234,-0.2215,-0.218,-0.2055,-0.1908,-0.178,-0.1713,-0.174,-0.1706,-0.171,-0.1638,-0.1716,-0.1718,-0.1965,-0.1627,-0.163,-0.1632,-0.1634,-0.1635,-0.1996,-0.1975,-0.1999,-0.1985,-0.1998,-0.2001,-0.1971,-0.2015,-0.2007,-0.1956,-0.2038,-0.1901,-0.1829,-0.163,-0.1556,-0.1403,-0.149,-0.1371,-0.142,-0.1467,-0.1432,-0.162,-0.1345,-0.1346,-0.1347,-0.1348,-0.1349,0,-0.1861,-0.1857,-0.1845,-0.1842,-0.1817,-0.1869,-0.1877,-0.182,-0.1781,-0.1688,-0.1649,-0.1533,-0.1431,-0.1348,-0.1236,-0.1154,-0.1141,-0.1138,-0.1193,-0.117,-0.127,-0.1279,-0.1017,-0.1017,-0.1017,-0.1017,-0.1017,-0.1017,-0.1794,-0.1735,-0.1734,-0.1658,-0.1665,-0.1611,-0.1596,-0.1502,-0.1396,-0.1181,-0.1034,-0.0979,-0.1065,-0.1219,-0.1136,-0.1064,-0.1059,-0.1017,-0.1059,-0.1159,-0.1186,-0.1212,-0.1228,-0.096,-0.096,-0.0902,-0.0902,-0.0902]},{"header":{"parameterUnit":"m.s-1","parameterCategory":2,"la1":30.2991,"la2":30.254,"lo1":-89.0895,"lo2":-89.0444,"dy":0.0017,"dx":0.0017,"nx":28,"ny":28,"refTime":"2026-02-10T03:00:00:Z","depth":"0","parameterNumber":3,"parameterNumberName":"V-component_of_CURRENTS"},"data":[0,0,0,0,0,0,0,0,0,0,0,0,0,0,0,0,0,0,0,0,0,0,0,0,0,0,0,0,0,0,0,0,0,0,0,0,0,0,0,0,0,0,0,0,0,0,0,0,0,0,0,0,0,0,0,0,0,0,0.0184,0.0185,0,0.027,0.027,0.027,0.0324,0.0325,0.0326,0.0328,0.0405,0.0405,0.0406,0,0,0,0,0,0,0,0,0,0,0,0,0,0.0028,0.003,0.0183,0.0186,0.0188,0.027,0.027,0.027,0.0323,0.0325,0.0327,0.0328,0.0404,0.0405,0.0406,0,0,0,0,0,0,0,0,0,0,0,0,0,0.0092,0.003,0.0183,0.0233,0.0239,0.027,0.027,0.027,0.0323,0.0325,0.0327,0.0329,0.0404,0.0405,0.0406,0.0372,0,0,0.041,0.041,0,0,0,0,0,0,0,0,0.0088,0.0096,0.0224,0.023,0.0237,0.0299,0.0244,0.0308,0.0322,0.0278,0.0328,0.033,0.0375,0.0378,0.0373,0.0376,0.0379,0.041,0.0411,0.0411,0.0412,0,0,0,0,0,0,0,0.0084,0.0093,0.0206,0.0226,0.0234,0.024,0.025,0.0255,0.0304,0.0283,0.029,0.0317,0.0377,0.0372,0.0375,0.038,0.041,0.0411,0.0412,0.0412,0.041,0.041,0,0,0,0,0,0,0.0097,0.0088,0.0203,0.0209,0.018,0.0242,0.0253,0.0267,0.0305,0.0316,0.0316,0.032,0.0369,0.0374,0.0379,0.0396,0.0411,0.0412,0.0413,0.0411,0.041,0.0409,0,0,0,0,0,0,0.0093,0.0105,0.02,0.0161,0.0175,0.0244,0.0258,0.0268,0.0268,0.0332,0.0341,0.0309,0.0371,0.0377,0.038,0.0397,0.0413,0.0414,0.0412,0.0411,0.041,0.0395,0,0,0,0,0,0,0.0087,0.0103,0.0089,0.0162,0.0178,0.0207,0.0258,0.0268,0.0288,0.0294,0.0329,0.0339,0.0373,0.0378,0.0381,0.0399,0.0415,0.0413,0.0411,0.041,0.0396,0.0393,0.0391,0,0,0,0,0,0.0081,0.0048,0.0087,0.0101,0.0166,0.0207,0.0213,0.0262,0.0286,0.027,0.03,0.0338,0.0373,0.0377,0.0381,0.0401,0.0413,0.0412,0.041,0.0398,0.0394,0.0391,0,0,0,0,0,0,-0.0029,0.0054,0.0098,0.0092,0.015,0.0221,0.0207,0.025,0.0258,0.0269,0.0315,0.0325,0.0341,0.0355,0.0359,0.0393,0.0404,0.0403,0.0393,0.039,0.0387,0.0364,0.0416,0,0,0,0,0,-0.0054,-0.006,0.0039,0.0032,0.0059,0.0131,0.0147,0.0198,0.0235,0.0241,0.027,0.0302,0.0333,0.0348,0.0367,0.037,0.0371,0.0387,0.0384,0.0382,0.0364,0.0348,0.0342,0.0404,0.0404,0.0404,0,0,-0.0102,-0.0051,-0.0058,0.0008,0.0051,0.0076,0.0141,0.0174,0.0198,0.0247,0.0249,0.0287,0.0328,0.0347,0.0357,0.0365,0.0372,0.038,0.0378,0.0361,0.0345,0.0339,0.0334,0.0403,0.0403,0.0403,0,0,-0.0187,-0.0147,-0.0172,-0.0125,-0.0039,0.0017,0.0028,0.0104,0.0136,0.016,0.021,0.025,0.0276,0.0323,0.0349,0.0333,0.0355,0.0343,0.0317,0.0302,0.0297,0.0292,0.032,0.0318,0.0346,0.0346,0.0346,0,-0.025,-0.0241,-0.0175,-0.0166,-0.0132,-0.0012,-0.001,0.0039,0.0106,0.0118,0.0159,0.0211,0.0271,0.0298,0.0319,0.0332,0.0324,0.0334,0.0299,0.0294,0.0289,0.0319,0.0316,0.0345,0.0345,0.0345,0.0345,0,-0.0324,-0.0315,-0.0325,-0.0266,-0.0234,-0.0209,-0.0101,-0.0077,-0.001,0.0049,0.0086,0.0163,0.0192,0.0239,0.0289,0.0291,0.0299,0.0296,0.0309,0.0282,0.0315,0.0313,0.0344,0.0344,0.0344,0.0344,0,0,-0.0462,-0.0396,-0.0396,-0.0377,-0.0275,-0.0251,-0.0216,-0.0152,-0.0142,-0.0053,-0.0053,0.0062,0.0108,0.0139,0.0208,0.023,0.0245,0.0251,0.025,0.0281,0.0224,0.029,0.0294,0.0219,0.0217,0.0216,0.0273,0,-0.0533,-0.0543,-0.0487,-0.0487,-0.0473,-0.0371,-0.0354,-0.028,-0.0208,-0.0183,-0.0067,-0.0034,0.0071,0.0094,0.0132,0.0205,0.0231,0.0231,0.0241,0.0242,0.0305,0.0291,0.034,0.0398,0.0271,0.0271,0.027,0,-0.0605,-0.0598,-0.0616,-0.0575,-0.0564,-0.0551,-0.0503,-0.0467,-0.0386,-0.0338,-0.0278,-0.0196,-0.0112,-0.0036,0.0068,0.0052,0.0132,0.0197,0.02,0.0256,0.0302,0.0396,0.0399,0.054,0.0267,0.0267,0.0268,0,-0.0696,-0.0683,-0.0701,-0.0683,-0.0623,-0.063,-0.0597,-0.0526,-0.0499,-0.0442,-0.0421,-0.0333,-0.0264,-0.019,0.0009,0.0008,0.0114,0.0124,0.0258,0.0265,0.0309,0.0321,0.0448,0.0163,0.0163,0.0163,0.0163,0,-0.0764,-0.0777,-0.0749,-0.0751,-0.0783,-0.0716,-0.0733,-0.0692,-0.064,-0.0612,-0.0508,-0.0459,-0.0306,-0.0196,-0.006,0.0114,0.0059,0.0248,0.0272,0.031,0.0322,0.0447,0.0494,0.0165,0.0165,0.0164,0.0164,0,-0.083,-0.0811,-0.0832,-0.0815,-0.0815,-0.0833,-0.0801,-0.0809,-0.0753,-0.0721,-0.0705,-0.0558,-0.0409,-0.0236,-0.0075,0.0051,0.0282,0.0261,0.0329,0.036,0.0597,0.0639,0.0754,0.0842,0.0385,0.0387,0.0388,0,-0.0852,-0.0872,-0.0887,-0.0909,-0.0901,-0.0915,-0.0921,-0.0869,-0.0859,-0.0758,-0.0744,-0.0594,-0.0438,-0.0165,0.0051,0.0268,0.0379,0.0436,0.0449,0.0617,0.0681,0.0711,0.0778,0.0519,0.0521,0.0523,0.0525,0,-0.0897,-0.0908,-0.0926,-0.0982,-0.1004,-0.1023,-0.1022,-0.1021,-0.0945,-0.0853,-0.0721,-0.0593,-0.0334,-0.0039,0.0238,0.0368,0.0542,0.0483,0.062,0.0764,0.0837,0.0931,0.0507,0.0542,0.0541,0.0539,0.0538,0.0538,-0.0927,-0.0962,-0.0999,-0.1046,-0.1082,-0.1107,-0.1074,-0.1018,-0.0926,-0.0679,-0.063,-0.0262,-0.0071,0.0339,0.0468,0.0759,0.0711,0.0862,0.0894,0.0905,0.1004,0.0644,0.0726,0.0725,0.0725,0.0724,0.0724,0,-0.0956,-0.0999,-0.1058,-0.1112,-0.116,-0.1156,-0.1114,-0.099,-0.0796,-0.0494,-0.0234,0.0241,0.0519,0.073,0.1009,0.117,0.1198,0.1247,0.1298,0.1342,0.0996,0.1019,0.1213,0.1213,0.1213,0.1213,0.1213,0.1213,-0.0973,-0.1036,-0.1071,-0.1157,-0.1192,-0.1134,-0.1071,-0.0813,-0.0531,0.0043,0.0509,0.079,0.0978,0.1267,0.1523,0.1543,0.169,0.1666,0.1741,0.1507,0.1473,0.1441,0.1476,0.1763,0.1764,0.2095,0.2098,0.21]}],[{"header":{"parameterUnit":"m.s-1","parameterCategory":2,"la1":30.2991,"la2":30.254,"lo1":-89.0895,"lo2":-89.0444,"dy":0.0017,"dx":0.0017,"nx":28,"ny":28,"refTime":"2026-02-10T03:00:00:Z","depth":"2","parameterNumber":2,"parameterNumberName":"U-component_of_CURRENTS"},"data":[0,0,0,0,0,0,0,0,0,0,0,0,0,0,0,0,0,0,0,0,0,0,0,0,0,0,0,0,0,0,0,0,0,0,0,0,0,0,0,0,0,0,0,0,0,0,0,0,0,0,0,0,0,0,0,0,0,0,-0.2159,-0.2159,0,-0.2176,-0.2176,-0.2177,-0.2196,-0.2196,-0.2196,-0.2196,-0.2251,-0.2253,-0.2254,0,0,0,0,0,0,0,0,0,0,0,0,0,-0.2085,-0.2087,-0.2159,-0.2159,-0.2159,-0.2176,-0.2176,-0.2177,-0.2196,-0.2196,-0.2196,-0.2196,-0.2251,-0.2253,-0.2254,0,0,0,0,0,0,0,0,0,0,0,0,0,-0.2115,-0.2088,-0.2159,-0.2168,-0.2169,-0.2175,-0.2176,-0.2177,-0.2196,-0.2196,-0.2196,-0.2196,-0.225,-0.2252,-0.2255,-0.2268,0,0,-0.2261,-0.2262,0,0,0,0,0,0,0,0,-0.2113,-0.2118,-0.2167,-0.2167,-0.2168,-0.2181,-0.217,-0.2208,-0.2196,-0.2189,-0.2196,-0.2196,-0.2229,-0.2233,-0.224,-0.2271,-0.2273,-0.2261,-0.2263,-0.2264,-0.2264,0,0,0,0,0,0,0,-0.2111,-0.2117,-0.2169,-0.2167,-0.2167,-0.2151,-0.2156,-0.2177,-0.2212,-0.219,-0.2191,-0.2187,-0.223,-0.2238,-0.2242,-0.2274,-0.2261,-0.2263,-0.2265,-0.2266,-0.2396,-0.2398,0,0,0,0,0,0,-0.2106,-0.2115,-0.2168,-0.2169,-0.2136,-0.2152,-0.2158,-0.218,-0.2211,-0.2215,-0.2187,-0.2188,-0.2235,-0.2239,-0.2244,-0.2274,-0.2264,-0.2266,-0.2267,-0.2394,-0.2396,-0.2399,0,0,0,0,0,0,-0.2105,-0.2111,-0.2168,-0.2138,-0.2144,-0.2154,-0.2178,-0.218,-0.2195,-0.2208,-0.2213,-0.22,-0.2235,-0.2241,-0.2301,-0.2276,-0.2267,-0.2269,-0.2391,-0.2394,-0.2397,-0.2326,0,0,0,0,0,0,-0.2103,-0.2112,-0.2122,-0.2139,-0.2145,-0.2181,-0.2177,-0.218,-0.2191,-0.2192,-0.2221,-0.2225,-0.2235,-0.2298,-0.2303,-0.2278,-0.227,-0.2388,-0.2393,-0.2396,-0.2326,-0.2326,-0.2327,0,0,0,0,0,-0.2101,-0.2125,-0.2123,-0.2129,-0.2162,-0.2181,-0.2184,-0.2191,-0.2191,-0.2204,-0.2244,-0.2225,-0.2326,-0.2302,-0.2307,-0.2282,-0.2386,-0.2391,-0.2396,-0.2325,-0.2326,-0.2327,0,0,0,0,0,0,-0.2105,-0.2129,-0.2128,-0.216,-0.2169,-0.2183,-0.2198,-0.2196,-0.2235,-0.2243,-0.2258,-0.2267,-0.2309,-0.2329,-0.2301,-0.2342,-0.235,-0.2357,-0.2295,-0.2296,-0.2297,-0.2278,-0.2272,0,0,0,0,0,-0.2108,-0.2129,-0.2145,-0.2167,-0.218,-0.2188,-0.2195,-0.2197,-0.2229,-0.2244,-0.2272,-0.2307,-0.2332,-0.2342,-0.2381,-0.2401,-0.2393,-0.2394,-0.2395,-0.2394,-0.239,-0.2372,-0.2368,-0.2414,-0.2414,-0.2414,0,0,-0.2112,-0.2128,-0.2138,-0.2167,-0.2182,-0.2198,-0.2195,-0.2214,-0.2219,-0.2245,-0.229,-0.2318,-0.2347,-0.2375,-0.2392,-0.2383,-0.238,-0.2401,-0.2399,-0.2395,-0.2376,-0.2371,-0.2366,-0.2418,-0.2417,-0.2416,0,0,-0.2122,-0.2155,-0.2169,-0.2181,-0.2197,-0.221,-0.2216,-0.2243,-0.2253,-0.2299,-0.2311,-0.2328,-0.2395,-0.2381,-0.2386,-0.242,-0.2395,-0.244,-0.2403,-0.2384,-0.2378,-0.2373,-0.2344,-0.2336,-0.2424,-0.2423,-0.2423,0,-0.212,-0.2145,-0.2174,-0.2188,-0.2195,-0.2218,-0.2227,-0.2244,-0.2284,-0.229,-0.232,-0.2378,-0.2387,-0.2372,-0.2382,-0.2408,-0.2406,-0.238,-0.2377,-0.2372,-0.2368,-0.2339,-0.2332,-0.2421,-0.2421,-0.2421,-0.2421,0,-0.2132,-0.2151,-0.2169,-0.2195,-0.2212,-0.2229,-0.2252,-0.2277,-0.2303,-0.231,-0.2336,-0.236,-0.2382,-0.2379,-0.2387,-0.2353,-0.2364,-0.2382,-0.2353,-0.2357,-0.2329,-0.2322,-0.2416,-0.2418,-0.2418,-0.2419,0,0,-0.2121,-0.2166,-0.2167,-0.2173,-0.2214,-0.2228,-0.2255,-0.2272,-0.2278,-0.2317,-0.2317,-0.2334,-0.2337,-0.2346,-0.2338,-0.2308,-0.2256,-0.2328,-0.2329,-0.226,-0.2212,-0.2126,-0.2111,-0.2273,-0.2272,-0.2271,-0.2197,0,-0.2113,-0.2132,-0.2159,-0.2178,-0.2194,-0.2226,-0.2248,-0.2264,-0.2294,-0.2313,-0.2302,-0.232,-0.2325,-0.2323,-0.2294,-0.2284,-0.224,-0.2274,-0.2254,-0.2253,-0.2143,-0.21,-0.1964,-0.1879,-0.2191,-0.219,-0.2189,0,-0.21,-0.2118,-0.2131,-0.2164,-0.2177,-0.2192,-0.2226,-0.2244,-0.2266,-0.2288,-0.229,-0.2306,-0.2264,-0.228,-0.2226,-0.2255,-0.2226,-0.2209,-0.2206,-0.2145,-0.2154,-0.1935,-0.1856,-0.2178,-0.2179,-0.218,-0.218,0,-0.2057,-0.2093,-0.2101,-0.2111,-0.216,-0.2169,-0.2197,-0.223,-0.2243,-0.2262,-0.2276,-0.226,-0.2249,-0.2223,-0.2189,-0.2213,-0.2133,-0.216,-0.2047,-0.2041,-0.1929,-0.1914,-0.2106,-0.2106,-0.2106,-0.2106,-0.2107,0,-0.2026,-0.2029,-0.2081,-0.2082,-0.2093,-0.2142,-0.2155,-0.2182,-0.2215,-0.2217,-0.225,-0.2239,-0.2239,-0.2203,-0.2175,-0.2077,-0.2116,-0.2019,-0.2006,-0.1903,-0.1887,-0.2165,-0.2172,-0.2104,-0.2104,-0.2105,-0.2105,0,-0.1958,-0.1996,-0.2005,-0.2055,-0.2068,-0.2073,-0.2123,-0.2133,-0.218,-0.2182,-0.2186,-0.2212,-0.2162,-0.2138,-0.2084,-0.2039,-0.1969,-0.1924,-0.1793,-0.1765,-0.1895,-0.1902,-0.1787,-0.1783,-0.178,-0.1777,-0.1775,0,-0.1917,-0.1916,-0.1964,-0.1968,-0.1985,-0.201,-0.2025,-0.2093,-0.2108,-0.2153,-0.2141,-0.2118,-0.2061,-0.195,-0.1867,-0.1767,-0.1859,-0.1596,-0.1602,-0.1858,-0.1858,-0.187,-0.188,-0.1429,-0.1424,-0.142,-0.1416,0,-0.183,-0.1853,-0.1861,-0.1877,-0.1892,-0.191,-0.1942,-0.195,-0.2023,-0.2027,-0.201,-0.1969,-0.187,-0.1697,-0.1583,-0.1521,-0.1604,-0.1509,-0.1792,-0.1534,-0.1515,-0.1518,-0.154,-0.138,-0.1384,-0.1387,-0.1389,-0.139,-0.1751,-0.1741,-0.176,-0.176,-0.1784,-0.1787,-0.175,-0.1799,-0.1794,-0.1765,-0.1823,-0.1706,-0.166,-0.1396,-0.1294,-0.122,-0.134,-0.1291,-0.1305,-0.1324,-0.1299,-0.1275,-0.109,-0.1092,-0.1094,-0.1095,-0.1096,0,-0.1642,-0.1643,-0.1641,-0.1638,-0.161,-0.1664,-0.1667,-0.1605,-0.1546,-0.1556,-0.1504,-0.131,-0.1172,-0.1133,-0.0952,-0.0903,-0.092,-0.0872,-0.0906,-0.0942,-0.0973,-0.0933,-0.0626,-0.0625,-0.0624,-0.0622,0,0,-0.1585,-0.1542,-0.1542,-0.1457,-0.145,-0.1354,-0.1319,-0.126,-0.1226,-0.1135,-0.1076,-0.112,-0.1107,-0.088,-0.081,-0.0689,-0.0814,-0.0649,-0.1026,-0.1103,-0.1134,-0.121,-0.1187,0,0,0,0,0]},{"header":{"parameterUnit":"m.s-1","parameterCategory":2,"la1":30.2991,"la2":30.254,"lo1":-89.0895,"lo2":-89.0444,"dy":0.0017,"dx":0.0017,"nx":28,"ny":28,"refTime":"2026-02-10T03:00:00:Z","depth":"2","parameterNumber":3,"parameterNumberName":"V-component_of_CURRENTS"},"data":[0,0,0,0,0,0,0,0,0,0,0,0,0,0,0,0,0,0,0,0,0,0,0,0,0,0,0,0,0,0,0,0,0,0,0,0,0,0,0,0,0,0,0,0,0,0,0,0,0,0,0,0,0,0,0,0,0,0,-0.0518,-0.0518,0,-0.0477,-0.0476,-0.0475,-0.0422,-0.0421,-0.0421,-0.042,-0.0314,-0.0311,-0.0309,0,0,0,0,0,0,0,0,0,0,0,0,0,-0.0528,-0.0528,-0.0518,-0.0518,-0.0518,-0.0477,-0.0476,-0.0475,-0.0422,-0.0421,-0.042,-0.042,-0.0314,-0.0312,-0.0309,0,0,0,0,0,0,0,0,0,0,0,0,0,-0.0506,-0.0528,-0.0518,-0.0489,-0.0486,-0.0477,-0.0476,-0.0475,-0.0422,-0.0421,-0.042,-0.0419,-0.0315,-0.0312,-0.0308,-0.0304,0,0,-0.0298,-0.0296,0,0,0,0,0,0,0,0,-0.0507,-0.0505,-0.0493,-0.0491,-0.0488,-0.0457,-0.0441,-0.0416,-0.0422,-0.0443,-0.042,-0.0419,-0.0358,-0.0351,-0.0341,-0.0299,-0.0294,-0.0298,-0.0295,-0.0294,-0.0293,0,0,0,0,0,0,0,-0.0509,-0.0507,-0.0498,-0.0493,-0.049,-0.047,-0.0466,-0.0436,-0.0402,-0.0441,-0.0438,-0.0439,-0.0356,-0.0345,-0.0338,-0.0293,-0.0298,-0.0295,-0.0292,-0.0291,-0.0175,-0.0174,0,0,0,0,0,0,-0.0523,-0.0508,-0.05,-0.0497,-0.0499,-0.0471,-0.0466,-0.0465,-0.0403,-0.0395,-0.044,-0.0437,-0.0351,-0.0342,-0.0334,-0.0302,-0.0294,-0.0291,-0.0289,-0.0176,-0.0175,-0.0174,0,0,0,0,0,0,-0.0523,-0.0523,-0.0501,-0.0505,-0.0501,-0.0472,-0.0471,-0.0464,-0.0451,-0.0404,-0.0393,-0.0433,-0.035,-0.0339,-0.0293,-0.0298,-0.0289,-0.0286,-0.0177,-0.0175,-0.0174,-0.0251,0,0,0,0,0,0,-0.0524,-0.0523,-0.0526,-0.0506,-0.0501,-0.0499,-0.0472,-0.0464,-0.0455,-0.045,-0.0395,-0.0384,-0.0349,-0.0299,-0.029,-0.0293,-0.0283,-0.0178,-0.0176,-0.0175,-0.025,-0.0253,-0.0255,0,0,0,0,0,-0.0524,-0.0531,-0.0527,-0.0526,-0.0507,-0.05,-0.0496,-0.047,-0.0456,-0.0453,-0.0405,-0.0386,-0.028,-0.0296,-0.0285,-0.0288,-0.0179,-0.0177,-0.0175,-0.0249,-0.0252,-0.0255,0,0,0,0,0,0,-0.0537,-0.0527,-0.0521,-0.0524,-0.0516,-0.0492,-0.0489,-0.0475,-0.0438,-0.0428,-0.0378,-0.0364,-0.0325,-0.0289,-0.0307,-0.0243,-0.0225,-0.022,-0.0284,-0.0287,-0.0289,-0.0286,-0.028,0,0,0,0,0,-0.0544,-0.0547,-0.0535,-0.054,-0.0536,-0.0514,-0.0508,-0.0494,-0.0462,-0.0445,-0.0406,-0.0354,-0.0309,-0.0285,-0.0241,-0.0213,-0.0169,-0.0202,-0.0205,-0.0207,-0.0194,-0.0131,-0.0127,-0.0166,-0.0166,-0.0166,0,0,-0.0552,-0.0548,-0.0549,-0.0543,-0.0531,-0.0528,-0.0507,-0.0502,-0.0493,-0.0439,-0.0406,-0.0364,-0.0301,-0.0265,-0.0244,-0.0237,-0.0176,-0.0205,-0.0208,-0.0192,-0.0128,-0.0125,-0.0122,-0.0165,-0.0165,-0.0165,0,0,-0.057,-0.0563,-0.057,-0.0565,-0.0557,-0.0543,-0.0545,-0.0522,-0.0502,-0.0474,-0.0426,-0.0382,-0.0323,-0.0276,-0.0244,-0.023,-0.0191,-0.0221,-0.0234,-0.0174,-0.0171,-0.0168,-0.0127,-0.0119,-0.0223,-0.0223,-0.0223,0,-0.0581,-0.0585,-0.0572,-0.0576,-0.0572,-0.0551,-0.0554,-0.0534,-0.0499,-0.0476,-0.0468,-0.0365,-0.0324,-0.0264,-0.0258,-0.0238,-0.0202,-0.0239,-0.018,-0.0176,-0.0171,-0.013,-0.012,-0.0226,-0.0226,-0.0225,-0.0225,0,-0.0601,-0.0603,-0.0606,-0.0601,-0.0594,-0.0596,-0.0572,-0.0557,-0.0534,-0.0506,-0.045,-0.0392,-0.0326,-0.0314,-0.0283,-0.0228,-0.0214,-0.0197,-0.0183,-0.0172,-0.0129,-0.0118,-0.0231,-0.023,-0.0229,-0.0228,0,0,-0.0631,-0.0623,-0.0624,-0.0626,-0.0608,-0.0607,-0.0587,-0.0559,-0.0541,-0.05,-0.0463,-0.0393,-0.036,-0.032,-0.028,-0.0232,-0.0183,-0.0206,-0.0201,-0.0184,-0.0062,-0.0043,-0.0029,-0.0161,-0.0159,-0.0157,-0.0054,0,-0.0651,-0.0666,-0.065,-0.0657,-0.0661,-0.0631,-0.0614,-0.0583,-0.0549,-0.0508,-0.0441,-0.0392,-0.0363,-0.0339,-0.0285,-0.0206,-0.0153,-0.0213,-0.0058,-0.0053,-0.0052,-0.0014,-0.0027,0.0066,-0.0043,-0.0041,-0.004,0,-0.0676,-0.0682,-0.0696,-0.0684,-0.0681,-0.0679,-0.0646,-0.0629,-0.0562,-0.0532,-0.0469,-0.0415,-0.0334,-0.0316,-0.0173,-0.0215,-0.0136,-0.0079,-0.0073,-0.0014,-0.0011,0.0046,0.0091,-0.002,-0.0022,-0.0023,-0.0025,0,-0.0711,-0.0712,-0.0725,-0.0723,-0.0706,-0.07,-0.0687,-0.0636,-0.0617,-0.0545,-0.0522,-0.0417,-0.0366,-0.0255,-0.0138,-0.015,0.0018,0.0017,0.0113,0.0114,0.0159,0.0161,0.0138,0.0137,0.0137,0.0137,0.0137,0,-0.0741,-0.0751,-0.0745,-0.0756,-0.0767,-0.0737,-0.0733,-0.0703,-0.0651,-0.0621,-0.054,-0.049,-0.0345,-0.0237,-0.0132,0.0024,0.0029,0.0129,0.0154,0.013,0.0128,0.0102,0.0096,0.0141,0.014,0.0139,0.0139,0,-0.0779,-0.0774,-0.0793,-0.0787,-0.0788,-0.0799,-0.0782,-0.0775,-0.0721,-0.0681,-0.0658,-0.0532,-0.0386,-0.0245,-0.0057,0.0032,0.0175,0.0233,0.0185,0.0203,0.0227,0.0217,0.0352,0.0353,0.0355,0.0356,0.0357,0,-0.0797,-0.0812,-0.0831,-0.0852,-0.0853,-0.0862,-0.0868,-0.0821,-0.0806,-0.0702,-0.0682,-0.0532,-0.0409,-0.0142,0.0041,0.0239,0.0233,0.0339,0.0325,0.0245,0.0255,0.0242,0.023,0.0346,0.0347,0.0348,0.0348,0,-0.0832,-0.0841,-0.0861,-0.091,-0.0931,-0.0946,-0.0944,-0.0938,-0.0867,-0.0805,-0.0689,-0.0576,-0.0317,-0.0087,0.0159,0.0269,0.0302,0.0361,0.0319,0.0286,0.0247,0.0254,0.0241,0.0355,0.0354,0.0354,0.0353,0.0353,-0.0857,-0.0887,-0.092,-0.0963,-0.0994,-0.1016,-0.1014,-0.0985,-0.0935,-0.0816,-0.0703,-0.0512,-0.0293,0.0066,0.0241,0.0392,0.0387,0.043,0.0425,0.042,0.0394,0.0359,0.0482,0.0482,0.0482,0.0482,0.0482,0,-0.0882,-0.0919,-0.097,-0.1017,-0.1056,-0.1057,-0.1051,-0.1015,-0.094,-0.0813,-0.0667,-0.0399,-0.0139,0.0071,0.0325,0.048,0.046,0.0497,0.0444,0.0438,0.0432,0.0403,0.0496,0.0496,0.0496,0.0497,0,0,-0.0897,-0.0951,-0.0981,-0.1052,-0.1085,-0.11,-0.1086,-0.1012,-0.0912,-0.0751,-0.0601,-0.0409,-0.0135,0.0046,0.0245,0.0376,0.036,0.0384,0.036,0.0269,0.0261,0.0386,0.0334,0,0,0,0,0]}],[{"header":{"parameterUnit":"m.s-1","parameterCategory":2,"la1":30.2991,"la2":30.254,"lo1":-89.0895,"lo2":-89.0444,"dy":0.0017,"dx":0.0017,"nx":28,"ny":28,"refTime":"2026-02-10T03:00:00:Z","depth":"4","parameterNumber":2,"parameterNumberName":"U-component_of_CURRENTS"},"data":[0,0,0,0,0,0,0,0,0,0,0,0,0,0,0,0,0,0,0,0,0,0,0,0,0,0,0,0,0,0,0,0,0,0,0,0,0,0,0,0,0,0,0,0,0,0,0,0,0,0,0,0,0,0,0,0,0,0,-0.1372,-0.1372,0,-0.1418,-0.1419,-0.1419,-0.1443,-0.1443,-0.1443,-0.1443,-0.1493,-0.1494,-0.1496,0,0,0,0,0,0,0,0,0,0,0,0,0,-0.1315,-0.1316,-0.1372,-0.1372,-0.1373,-0.1418,-0.1419,-0.1419,-0.1443,-0.1443,-0.1443,-0.1443,-0.1493,-0.1494,-0.1496,0,0,0,0,0,0,0,0,0,0,0,0,0,-0.1348,-0.1316,-0.1372,-0.139,-0.1392,-0.1418,-0.1419,-0.142,-0.1443,-0.1443,-0.1443,-0.1443,-0.1492,-0.1494,-0.1496,-0.1507,0,0,-0.1502,-0.1503,0,0,0,0,0,0,0,0,-0.1346,-0.135,-0.1387,-0.1389,-0.1392,-0.1425,-0.1417,-0.1449,-0.1443,-0.1424,-0.1443,-0.1443,-0.1471,-0.1474,-0.1483,-0.1509,-0.1511,-0.1502,-0.1503,-0.1504,-0.1504,0,0,0,0,0,0,0,-0.1344,-0.1348,-0.139,-0.1388,-0.139,-0.14,-0.1405,-0.1423,-0.1446,-0.1425,-0.1427,-0.1433,-0.1472,-0.1481,-0.1484,-0.1512,-0.1502,-0.1504,-0.1505,-0.1506,-0.1606,-0.1607,0,0,0,0,0,0,-0.1338,-0.1346,-0.1388,-0.1391,-0.1369,-0.1401,-0.1407,-0.1414,-0.1446,-0.1451,-0.1433,-0.1434,-0.1477,-0.1482,-0.1486,-0.1546,-0.1504,-0.1506,-0.1507,-0.1604,-0.1606,-0.1608,0,0,0,0,0,0,-0.1336,-0.1341,-0.1387,-0.137,-0.1376,-0.1402,-0.1411,-0.1415,-0.1445,-0.1452,-0.1457,-0.1461,-0.1478,-0.1483,-0.1528,-0.1547,-0.1507,-0.1508,-0.1603,-0.1605,-0.1607,-0.1638,0,0,0,0,0,0,-0.1335,-0.134,-0.1358,-0.1369,-0.1377,-0.1416,-0.1411,-0.1416,-0.1447,-0.145,-0.1477,-0.148,-0.1478,-0.1525,-0.153,-0.1549,-0.151,-0.1601,-0.1604,-0.1606,-0.1635,-0.1641,-0.1646,0,0,0,0,0,-0.1332,-0.1353,-0.1359,-0.1365,-0.1396,-0.1417,-0.1423,-0.144,-0.1449,-0.1467,-0.1491,-0.1481,-0.1546,-0.1528,-0.1533,-0.1553,-0.1599,-0.1603,-0.1606,-0.1633,-0.164,-0.1646,0,0,0,0,0,0,-0.134,-0.1357,-0.1364,-0.139,-0.1409,-0.1421,-0.1445,-0.1455,-0.1489,-0.15,-0.1504,-0.1509,-0.1551,-0.1556,-0.1536,-0.1592,-0.1569,-0.1574,-0.1588,-0.1595,-0.16,-0.1601,-0.1511,0,0,0,0,0,-0.1349,-0.137,-0.1383,-0.1408,-0.1419,-0.1437,-0.1454,-0.1466,-0.149,-0.1505,-0.1525,-0.1548,-0.1566,-0.1584,-0.1601,-0.1638,-0.1625,-0.1654,-0.166,-0.1664,-0.167,-0.1676,-0.1681,-0.1619,-0.1619,-0.1619,0,0,-0.1361,-0.1372,-0.1386,-0.1412,-0.1429,-0.145,-0.1448,-0.1481,-0.1502,-0.1506,-0.1555,-0.157,-0.1581,-0.1618,-0.1637,-0.1626,-0.1674,-0.1669,-0.1672,-0.1676,-0.168,-0.1685,-0.1691,-0.1621,-0.1621,-0.162,0,0,-0.1382,-0.1404,-0.1424,-0.1442,-0.1471,-0.148,-0.1494,-0.1522,-0.1541,-0.1585,-0.159,-0.1623,-0.1659,-0.1668,-0.1675,-0.1726,-0.1701,-0.1733,-0.1765,-0.177,-0.1775,-0.1779,-0.1756,-0.1757,-0.1738,-0.1738,-0.1739,0,-0.1397,-0.1419,-0.1435,-0.1456,-0.1476,-0.1495,-0.152,-0.154,-0.1582,-0.1603,-0.1607,-0.1669,-0.1679,-0.1714,-0.1731,-0.1736,-0.1728,-0.1734,-0.1775,-0.1779,-0.1783,-0.1758,-0.176,-0.174,-0.174,-0.174,-0.174,0,-0.1421,-0.145,-0.1465,-0.1495,-0.1519,-0.1547,-0.157,-0.1605,-0.1632,-0.1649,-0.1702,-0.1721,-0.1756,-0.1764,-0.1763,-0.1799,-0.178,-0.1776,-0.1752,-0.179,-0.1763,-0.1763,-0.1743,-0.1742,-0.1742,-0.1741,0,0,-0.1423,-0.1472,-0.148,-0.1501,-0.1543,-0.1563,-0.1606,-0.1644,-0.1677,-0.1718,-0.1755,-0.1794,-0.181,-0.182,-0.1827,-0.1837,-0.1848,-0.1824,-0.1824,-0.1791,-0.1842,-0.1701,-0.1687,-0.1853,-0.1854,-0.1855,-0.1807,0,-0.1437,-0.1478,-0.1502,-0.1551,-0.1572,-0.1609,-0.1645,-0.1686,-0.1721,-0.1763,-0.1787,-0.1825,-0.1827,-0.185,-0.1863,-0.1855,-0.1855,-0.186,-0.182,-0.1819,-0.1679,-0.1686,-0.1857,-0.1807,-0.1807,-0.1807,-0.1807,0,-0.1443,-0.1471,-0.1518,-0.1576,-0.1591,-0.1628,-0.1693,-0.1728,-0.1783,-0.181,-0.1854,-0.187,-0.19,-0.1892,-0.1896,-0.1901,-0.1878,-0.1864,-0.1862,-0.172,-0.1679,-0.1767,-0.1809,-0.1809,-0.1809,-0.1808,-0.1808,0,-0.1416,-0.148,-0.1518,-0.1539,-0.1607,-0.1646,-0.1688,-0.175,-0.178,-0.1843,-0.1867,-0.1907,-0.1923,-0.1919,-0.1889,-0.1901,-0.1868,-0.1876,-0.1724,-0.1713,-0.1841,-0.1838,-0.1872,-0.1872,-0.1872,-0.1872,-0.1872,0,-0.1399,-0.1433,-0.1517,-0.1535,-0.1588,-0.1647,-0.1706,-0.1751,-0.1813,-0.1836,-0.1892,-0.1899,-0.1934,-0.1915,-0.1892,-0.1791,-0.1867,-0.172,-0.1691,-0.1854,-0.1853,-0.184,-0.1837,-0.187,-0.187,-0.1871,-0.1871,0,-0.1346,-0.1404,-0.1452,-0.1541,-0.1573,-0.1611,-0.17,-0.1733,-0.1806,-0.1835,-0.1854,-0.1896,-0.1863,-0.1858,-0.1834,-0.1769,-0.1705,-0.1651,-0.1802,-0.1784,-0.1548,-0.1548,-0.1481,-0.1475,-0.1471,-0.1467,-0.1464,0,-0.1312,-0.1335,-0.1438,-0.1467,-0.151,-0.1581,-0.1619,-0.1712,-0.1737,-0.1807,-0.18,-0.1805,-0.181,-0.1645,-0.167,-0.1589,-0.1572,-0.153,-0.1563,-0.1529,-0.1509,-0.1516,-0.1521,-0.1457,-0.1455,-0.1454,-0.1453,0,-0.1241,-0.1296,-0.1333,-0.1395,-0.1448,-0.1494,-0.1558,-0.1564,-0.1652,-0.1739,-0.1684,-0.1642,-0.159,-0.1546,-0.148,-0.1435,-0.1557,-0.1483,-0.1493,-0.1523,-0.1499,-0.1485,-0.1496,-0.1437,-0.1439,-0.1441,-0.1442,0,-0.1184,-0.1196,-0.1257,-0.1295,-0.1362,-0.1375,-0.1427,-0.1441,-0.1474,-0.1556,-0.1531,-0.1529,-0.1572,-0.1463,-0.141,-0.134,-0.1329,-0.1293,-0.1313,-0.1331,-0.1302,-0.125,-0.1076,0,0,0,0,0,-0.1116,-0.1117,-0.1148,-0.1183,-0.1245,-0.1275,-0.1365,-0.1419,-0.151,-0.1426,-0.1472,-0.1412,-0.1323,-0.1329,-0.1221,-0.1343,-0.1338,-0.1213,-0.131,-0.1349,-0.1367,-0.1346,0,0,0,0,0,0,-0.1072,-0.1099,-0.1107,-0.1077,-0.1075,-0.1123,-0.1171,-0.1236,-0.12,-0.1293,-0.1247,-0.1314,-0.1245,-0.1343,-0.1183,-0.1183,-0.1212,-0.1225,-0.122,-0.1339,-0.1355,-0.137,-0.1354,0,0,0,0,0]},{"header":{"parameterUnit":"m.s-1","parameterCategory":2,"la1":30.2991,"la2":30.254,"lo1":-89.0895,"lo2":-89.0444,"dy":0.0017,"dx":0.0017,"nx":28,"ny":28,"refTime":"2026-02-10T03:00:00:Z","depth":"4","parameterNumber":3,"parameterNumberName":"V-component_of_CURRENTS"},"data":[0,0,0,0,0,0,0,0,0,0,0,0,0,0,0,0,0,0,0,0,0,0,0,0,0,0,0,0,0,0,0,0,0,0,0,0,0,0,0,0,0,0,0,0,0,0,0,0,0,0,0,0,0,0,0,0,0,0,-0.042,-0.042,0,-0.0411,-0.0411,-0.0411,-0.04,-0.0399,-0.0399,-0.0399,-0.0353,-0.0352,-0.035,0,0,0,0,0,0,0,0,0,0,0,0,0,-0.041,-0.041,-0.042,-0.042,-0.042,-0.0411,-0.0411,-0.0411,-0.04,-0.0399,-0.0399,-0.0399,-0.0353,-0.0352,-0.035,0,0,0,0,0,0,0,0,0,0,0,0,0,-0.0408,-0.041,-0.042,-0.0414,-0.0414,-0.0411,-0.0411,-0.0411,-0.04,-0.0399,-0.0399,-0.0399,-0.0354,-0.0352,-0.035,-0.0342,0,0,-0.0345,-0.0344,0,0,0,0,0,0,0,0,-0.0408,-0.0408,-0.0415,-0.0415,-0.0414,-0.0407,-0.039,-0.0386,-0.04,-0.0404,-0.0399,-0.0399,-0.0368,-0.0365,-0.0363,-0.034,-0.0338,-0.0345,-0.0344,-0.0343,-0.0342,0,0,0,0,0,0,0,-0.0408,-0.0408,-0.0416,-0.0415,-0.0415,-0.0406,-0.0405,-0.0389,-0.0385,-0.0404,-0.0403,-0.0404,-0.0367,-0.0365,-0.0362,-0.0337,-0.0345,-0.0343,-0.0342,-0.0341,-0.0305,-0.0305,0,0,0,0,0,0,-0.0412,-0.0409,-0.0416,-0.0416,-0.0412,-0.0406,-0.0406,-0.0409,-0.0386,-0.0384,-0.0404,-0.0403,-0.0368,-0.0364,-0.036,-0.0351,-0.0343,-0.0341,-0.034,-0.0305,-0.0305,-0.0305,0,0,0,0,0,0,-0.0412,-0.0413,-0.0416,-0.0412,-0.0412,-0.0407,-0.041,-0.0409,-0.0411,-0.0387,-0.0383,-0.0408,-0.0367,-0.0362,-0.035,-0.0349,-0.034,-0.0339,-0.0305,-0.0305,-0.0305,-0.0332,0,0,0,0,0,0,-0.0412,-0.0413,-0.0421,-0.0413,-0.0413,-0.042,-0.041,-0.0409,-0.0412,-0.0411,-0.039,-0.0385,-0.0367,-0.0353,-0.0349,-0.0347,-0.0338,-0.0305,-0.0305,-0.0305,-0.0331,-0.0333,-0.0335,0,0,0,0,0,-0.0412,-0.0421,-0.0421,-0.0423,-0.0422,-0.0421,-0.042,-0.0414,-0.0412,-0.0416,-0.0401,-0.0386,-0.0351,-0.0352,-0.0347,-0.0344,-0.0305,-0.0305,-0.0305,-0.033,-0.0333,-0.0335,0,0,0,0,0,0,-0.042,-0.042,-0.0421,-0.043,-0.0429,-0.0419,-0.0424,-0.042,-0.0412,-0.0412,-0.0388,-0.0382,-0.0373,-0.0355,-0.0357,-0.0334,-0.0325,-0.0324,-0.0346,-0.0348,-0.035,-0.0339,-0.0336,0,0,0,0,0,-0.0426,-0.0435,-0.0431,-0.044,-0.044,-0.0434,-0.0435,-0.0432,-0.0422,-0.0419,-0.0404,-0.0385,-0.0369,-0.0357,-0.0343,-0.0329,-0.029,-0.0323,-0.0325,-0.0327,-0.0315,-0.0248,-0.0243,-0.0306,-0.0306,-0.0306,0,0,-0.0432,-0.0434,-0.044,-0.0443,-0.0441,-0.0445,-0.0434,-0.0438,-0.044,-0.0415,-0.0412,-0.0395,-0.0369,-0.0355,-0.0348,-0.034,-0.0293,-0.0327,-0.0329,-0.0315,-0.0248,-0.0241,-0.0236,-0.0306,-0.0306,-0.0306,0,0,-0.0446,-0.0451,-0.0461,-0.0462,-0.0464,-0.0459,-0.0463,-0.0457,-0.0453,-0.0452,-0.043,-0.0406,-0.0394,-0.0361,-0.0346,-0.0347,-0.0309,-0.0353,-0.0346,-0.0283,-0.0276,-0.027,-0.0229,-0.0219,-0.0347,-0.0347,-0.0347,0,-0.0456,-0.0466,-0.0463,-0.0471,-0.0474,-0.0468,-0.0475,-0.0471,-0.0462,-0.045,-0.0457,-0.041,-0.0391,-0.0349,-0.0352,-0.0348,-0.0316,-0.0341,-0.0283,-0.0276,-0.027,-0.0228,-0.0217,-0.0349,-0.0348,-0.0348,-0.0348,0,-0.0473,-0.0484,-0.0489,-0.0498,-0.0498,-0.0506,-0.0498,-0.0497,-0.0495,-0.048,-0.0451,-0.0421,-0.0384,-0.038,-0.0369,-0.0313,-0.0309,-0.0298,-0.0276,-0.0265,-0.0223,-0.021,-0.0351,-0.035,-0.035,-0.0349,0,0,-0.0489,-0.05,-0.0504,-0.0512,-0.0514,-0.0517,-0.0516,-0.0503,-0.0494,-0.0478,-0.0451,-0.0418,-0.0391,-0.0371,-0.0345,-0.0291,-0.0226,-0.0279,-0.0275,-0.0235,-0.0099,-0.0118,-0.0106,-0.0205,-0.0203,-0.0201,-0.0094,0,-0.0505,-0.0528,-0.0524,-0.0543,-0.0552,-0.0542,-0.0538,-0.0524,-0.0509,-0.0481,-0.0431,-0.0403,-0.0391,-0.0373,-0.0315,-0.0253,-0.0192,-0.0257,-0.0117,-0.0113,-0.0128,-0.0091,-0.0194,-0.0085,-0.0082,-0.008,-0.0078,0,-0.0522,-0.0535,-0.0558,-0.0563,-0.0565,-0.0574,-0.0561,-0.0557,-0.051,-0.0493,-0.0443,-0.0406,-0.0331,-0.0323,-0.0189,-0.0234,-0.0163,-0.0111,-0.0105,-0.01,-0.0108,-0.0093,-0.0055,-0.0057,-0.0059,-0.006,-0.0062,0,-0.0539,-0.0557,-0.0577,-0.0582,-0.0587,-0.0592,-0.0591,-0.0561,-0.0551,-0.0495,-0.0475,-0.0384,-0.034,-0.0238,-0.0145,-0.0159,0.0003,0.0001,0.0058,0.0056,0.0052,0.0045,0.0123,0.0123,0.0122,0.0122,0.0122,0,-0.0554,-0.0572,-0.0592,-0.0606,-0.0626,-0.0616,-0.0622,-0.0606,-0.0568,-0.0542,-0.0482,-0.0436,-0.0314,-0.0218,-0.0129,-0.0005,0.0023,0.0075,0.0094,0.0034,0.0024,0.006,0.0052,0.0126,0.0125,0.0124,0.0124,0,-0.0569,-0.0582,-0.0611,-0.0629,-0.064,-0.0656,-0.0661,-0.0657,-0.0619,-0.0582,-0.0563,-0.046,-0.0336,-0.0219,-0.0048,0.0011,0.0133,0.0177,0.0094,0.0104,0.0139,0.0128,0.0256,0.0256,0.0256,0.0257,0.0257,0,-0.0576,-0.0595,-0.064,-0.0666,-0.0682,-0.0704,-0.0717,-0.0691,-0.0677,-0.0593,-0.0569,-0.0447,-0.0369,-0.0143,-0.0027,0.0148,0.017,0.0227,0.0198,0.0153,0.0159,0.0147,0.0135,0.0258,0.0258,0.0258,0.0258,0,-0.0589,-0.0613,-0.064,-0.0699,-0.0732,-0.0755,-0.0765,-0.0753,-0.0702,-0.0671,-0.0549,-0.0429,-0.0287,-0.0131,0.0002,0.0126,0.0182,0.0231,0.0231,0.0205,0.0157,0.016,0.0148,0.0259,0.0259,0.0259,0.0259,0,-0.0601,-0.0628,-0.0674,-0.0719,-0.0768,-0.0788,-0.0789,-0.0749,-0.072,-0.0616,-0.0572,-0.0416,-0.0317,-0.014,-0.0017,0.0097,0.0124,0.0152,0.0157,0.0157,0.0085,0.0007,0.0098,0,0,0,0,0,-0.0604,-0.0638,-0.0688,-0.0736,-0.0786,-0.0808,-0.0811,-0.0796,-0.0743,-0.0658,-0.0607,-0.0469,-0.0263,-0.0172,-0.0058,-0.003,0.0121,0.0104,0.015,0.0267,0.0265,0.0195,0,0,0,0,0,0,-0.0608,-0.0659,-0.0684,-0.074,-0.0775,-0.0816,-0.0819,-0.0784,-0.0722,-0.0653,-0.0539,-0.0457,-0.0261,-0.0329,-0.006,-0.0025,0.0016,0.0206,0.0208,0.0268,0.0266,0.0265,0.0192,0,0,0,0,0]}]]